Zurück zum Katalog

STARLINK-36928

AktivKommunikationSSO
NORAD 68020·PAYLOAD·🇺🇸 United States

Gestartet Mar 1, 2026 von Vandenberg Space Force Base

Loading…

Nächste Überflüge (nächste 24 Stunden)

TLE

AktuellSource: CelesTrak SupGP

Epoche: Sep 14, 2026, 21:06 UTC

1 68020C 26040F   26257.87965278 -.00029695  00000+0 -92173-3 0  2576
2 68020  97.2851 205.2450 0001682  84.5305 251.9082 15.33455682    10

Verfolge STARLINK-36928 in Echtzeit mit AllMySat

Download on the App Store